CES9963 ZLLL-ZYTL

Flight info

Callsign CES9963
Flight time N/A
Altitude 35100
Route ADPUX5H ADPUX W211 ZWX W219 YHD B215 GODON W87 PARTU G212 VYK W34 ANRAT W575 INTIV INT18A
Aircraft A320/M-SDE3FGHIRWY/LB1

Departure

Time 2026-05-04 06:25
Airport Lanzhou Zhongchuan International Airport (ZLLL)

Arrival

Time N/A
Airport Dalian Zhoushuizi International Airport (ZYTL)
Time Latitude Longitude Altitude Speed Heading
2026-05-04 06:05 36.52433 103.63746 6398 ft 0 kts 281°
2026-05-04 06:13 36.52426 103.63789 6398 ft 2 kts 282°
2026-05-04 06:14 36.52386 103.63866 6398 ft 1 kts 360°
2026-05-04 06:14 36.52383 103.63866 6398 ft 0 kts 357°
2026-05-04 06:16 36.52384 103.63866 6398 ft 0 kts 357°
2026-05-04 06:16 36.52395 103.63866 6398 ft 3 kts
2026-05-04 06:16 36.52427 103.63871 6398 ft 6 kts 12°
2026-05-04 06:17 36.52478 103.63892 6398 ft 9 kts 22°
2026-05-04 06:17 36.52547 103.63927 6398 ft 11 kts 22°
2026-05-04 06:17 36.52631 103.63969 6398 ft 14 kts 20°
2026-05-04 06:17 36.52702 103.64030 6399 ft 10 kts 81°
2026-05-04 06:18 36.52737 103.64113 6399 ft 12 kts 10°
2026-05-04 06:18 36.52832 103.64106 6399 ft 14 kts 357°
2026-05-04 06:18 36.52941 103.64099 6399 ft 16 kts 357°
2026-05-04 06:20 36.53194 103.63431 6399 ft 18 kts 267°
2026-05-04 06:20 36.53188 103.63264 6399 ft 19 kts 266°
2026-05-04 06:21 36.53159 103.62566 6399 ft 11 kts 267°
2026-05-04 06:21 36.53156 103.62514 6399 ft 0 kts 266°
2026-05-04 06:25 36.48270 103.62655 7449 ft 185 kts 179°
2026-05-04 06:25 36.47000 103.62752 7987 ft 187 kts 179°
2026-05-04 06:26 36.45684 103.62844 8367 ft 194 kts 179°
2026-05-04 06:26 36.44264 103.62936 8572 ft 205 kts 179°
2026-05-04 06:26 36.42799 103.63030 8779 ft 216 kts 179°
2026-05-04 06:26 36.41274 103.63126 8988 ft 227 kts 179°
2026-05-04 06:27 36.34227 103.62588 9833 ft 282 kts 218°
2026-05-04 06:28 36.32922 103.60765 10157 ft 288 kts 245°
2026-05-04 06:28 36.32433 103.58379 10666 ft 291 kts 271°
2026-05-04 06:28 36.32884 103.55965 11237 ft 293 kts 298°
2026-05-04 06:28 36.34104 103.54032 11832 ft 294 kts 313°
2026-05-04 06:29 36.35483 103.52224 12442 ft 297 kts 312°
2026-05-04 06:29 36.36900 103.50322 13072 ft 299 kts 312°
2026-05-04 06:29 36.38308 103.48422 13716 ft 301 kts 313°
2026-05-04 06:29 36.39926 103.46812 14316 ft 305 kts 333°
2026-05-04 06:30 36.41976 103.46104 14934 ft 309 kts 353°
2026-05-04 06:30 36.44140 103.45967 15552 ft 312 kts 357°
2026-05-04 06:30 36.46307 103.45921 16138 ft 315 kts 357°
2026-05-04 06:30 36.48508 103.45843 16744 ft 317 kts 356°
2026-05-04 06:31 36.50721 103.45729 17354 ft 319 kts 356°
2026-05-04 06:31 36.52940 103.45593 17935 ft 321 kts 355°
2026-05-04 06:31 36.55176 103.45455 18372 ft 327 kts 356°
2026-05-04 06:31 36.57493 103.45317 18602 ft 340 kts 356°
2026-05-04 06:32 36.59911 103.45173 18820 ft 352 kts 355°
2026-05-04 06:33 36.77534 103.48605 21299 ft 408 kts 52°
2026-05-04 06:34 36.78858 103.51733 21723 ft 414 kts 70°
2026-05-04 06:34 36.79659 103.55188 22175 ft 417 kts 73°
2026-05-04 06:34 36.80426 103.58680 22579 ft 421 kts 73°
2026-05-04 06:34 36.81211 103.62218 22994 ft 423 kts 73°
2026-05-04 06:35 36.81999 103.65723 23408 ft 426 kts 72°
2026-05-04 06:36 36.87783 103.91099 25847 ft 443 kts 72°
2026-05-04 06:37 36.88641 103.94816 26162 ft 445 kts 72°
2026-05-04 06:37 36.89490 103.98506 26461 ft 447 kts 72°
2026-05-04 06:37 36.90344 104.02227 26755 ft 449 kts 72°
2026-05-04 06:37 36.91213 104.06024 27059 ft 451 kts 72°
2026-05-04 06:38 36.91974 104.09361 27320 ft 453 kts 72°
2026-05-04 06:38 36.92827 104.13106 27606 ft 454 kts 72°
2026-05-04 06:40 37.04055 104.36448 29385 ft 458 kts 46°
2026-05-04 06:40 37.06183 104.39426 29621 ft 459 kts 45°
2026-05-04 06:40 37.08284 104.42382 29845 ft 460 kts 46°
2026-05-04 06:40 37.10419 104.45403 30065 ft 461 kts 46°
2026-05-04 06:41 37.12523 104.48389 30337 ft 460 kts 46°
2026-05-04 06:41 37.14655 104.51422 30633 ft 459 kts 46°
2026-05-04 06:41 37.16746 104.54401 30915 ft 459 kts 46°
2026-05-04 06:41 37.18835 104.57378 31180 ft 458 kts 46°
2026-05-04 06:42 37.20953 104.60397 31450 ft 458 kts 46°
2026-05-04 06:42 37.23031 104.63362 31718 ft 457 kts 46°
2026-05-04 06:42 37.25128 104.66363 31984 ft 456 kts 46°
2026-05-04 06:44 37.39776 104.87302 33552 ft 456 kts 45°
2026-05-04 06:44 37.41863 104.90279 33732 ft 456 kts 45°
2026-05-04 06:44 37.43941 104.93249 33891 ft 457 kts 45°
2026-05-04 06:45 37.46031 104.96240 34039 ft 458 kts 45°
2026-05-04 06:45 37.48146 104.99271 34195 ft 458 kts 45°
2026-05-04 06:45 37.50254 105.02296 34313 ft 459 kts 46°
2026-05-04 06:45 37.52358 105.05320 34418 ft 459 kts 45°
2026-05-04 06:46 37.54438 105.08311 34522 ft 460 kts 45°
2026-05-04 06:46 37.56549 105.11354 34624 ft 461 kts 46°
2026-05-04 06:46 37.58588 105.14506 34725 ft 463 kts 49°
2026-05-04 06:46 37.60561 105.17705 34824 ft 463 kts 49°
2026-05-04 06:48 37.74252 105.40258 35069 ft 464 kts 49°
2026-05-04 06:48 37.76210 105.43495 35072 ft 464 kts 49°
2026-05-04 06:50 37.91843 105.69301 35065 ft 462 kts 49°
2026-05-04 06:51 37.95738 105.75751 35057 ft 462 kts 49°
2026-05-04 06:51 37.99615 105.82185 35052 ft 462 kts 49°
2026-05-04 06:52 38.03504 105.88656 35042 ft 461 kts 49°
2026-05-04 06:52 38.07376 105.95110 35024 ft 461 kts 49°
2026-05-04 06:53 38.11248 106.01575 35009 ft 461 kts 49°
2026-05-04 06:53 38.15108 106.08036 35008 ft 461 kts 49°
2026-05-04 06:54 38.18969 106.14510 35017 ft 461 kts 49°
2026-05-04 06:54 38.22838 106.21016 35027 ft 460 kts 49°
2026-05-04 06:55 38.26666 106.27469 35034 ft 460 kts 49°
2026-05-04 06:55 38.30318 106.34126 35036 ft 464 kts 57°
2026-05-04 06:57 38.32004 106.66771 35054 ft 478 kts 96°
2026-05-04 06:58 38.31092 106.75102 35055 ft 478 kts 96°
2026-05-04 06:58 38.30189 106.83496 35065 ft 478 kts 95°
2026-05-04 06:59 38.29294 106.91827 35070 ft 478 kts 95°
2026-05-04 06:59 38.28388 107.00214 35081 ft 478 kts 95°
2026-05-04 07:01 38.24796 107.32896 35101 ft 476 kts 95°
2026-05-04 07:02 38.24129 107.38880 35101 ft 476 kts 95°